CW7858 Murcia ES current weather conditions

sailwx.info

Wind from 270 at 0 knots gusting 2

Air temperature 22.2° C
Dewpoint 0.7° C

Last reported at 2017-Nov-24 12:02 UTC.
Time now 2017-Nov-24 12:40 UTC

Location: N 37°60' W 001°08'.
View on Google Maps.

See reports from other nearby stations

  
Tides and Currents Weather Stations Pressure Air Temp Water Temp Dewpoint Dewpoint Depression Visibility Wind Speed Wind Dir Waves Ship Positions
date/time (UTC)wind fromknots sea level pressurealtimeterstation pressurevisibilityair tempwater tempwave heightnotes
2017-Nov-24 12:02 270 0 gusting 2 22.2
2017-Nov-24 11:52 233 1 gusting 2 21.7
2017-Nov-24 11:42 193 0 gusting 1 21.1
2017-Nov-24 11:32 232 0 gusting 1 20.0
2017-Nov-24 11:22 209 18.9
2017-Nov-24 11:12 210 0 gusting 1 18.3
2017-Nov-24 11:02 205 0 gusting 3 17.8
2017-Nov-24 10:52 246 0 gusting 2 17.8
2017-Nov-24 10:42 256 0 gusting 2 17.8
2017-Nov-24 10:32 261 0 gusting 4 17.8
2017-Nov-24 10:22 223 0 gusting 2 17.2
2017-Nov-24 10:13 216 1 gusting 4 16.7
2017-Nov-24 10:02 229 1 gusting 3 15.6
2017-Nov-24 09:52 226 1 gusting 4 15.6
2017-Nov-24 09:42 234 0 gusting 3 15.0
2017-Nov-24 09:33 253 1 gusting 3 14.4
2017-Nov-24 09:22 203 1 gusting 6 13.9
2017-Nov-24 09:13 295 2 gusting 5 13.3
2017-Nov-24 09:03 282 1 gusting 2 12.8
2017-Nov-24 08:52 268 1 gusting 2 12.2
2017-Nov-24 08:42 267 1 gusting 2 11.7
2017-Nov-24 08:32 271 0 gusting 2 11.1
2017-Nov-24 08:22 274 1 gusting 2 10.6
2017-Nov-24 08:12 209 1 gusting 2 10.6
2017-Nov-24 08:03 216 0 gusting 3 10.0
2017-Nov-24 07:52 209 0 gusting 1 9.4
2017-Nov-24 07:43 188 2 gusting 4 8.9
2017-Nov-24 07:32 213 0 gusting 2 8.3
2017-Nov-24 07:22 189 0 gusting 2 8.3
2017-Nov-24 07:12 188 8.3
2017-Nov-24 07:02 223 1 gusting 2 8.3
2017-Nov-24 06:52 203 0 gusting 2 8.3
2017-Nov-24 06:42 198 0 gusting 1 8.3
2017-Nov-24 06:32 191 0 gusting 2 8.3
2017-Nov-24 06:22 181 0 gusting 2 8.9
2017-Nov-24 06:12 212 8.9
2017-Nov-24 06:02 198 0 gusting 1 8.3
2017-Nov-24 05:53 212 0 gusting 4 8.3
2017-Nov-24 05:42 210 0 gusting 2 8.9
2017-Nov-24 05:32 205 0 gusting 4 8.9
2017-Nov-24 05:23 232 0 gusting 3 8.9
2017-Nov-24 05:12 229 1 gusting 4 8.9
2017-Nov-24 05:02 215 1 gusting 3 9.4
2017-Nov-24 04:53 199 0 gusting 1 9.4
2017-Nov-24 04:42 203 9.4
2017-Nov-24 04:32 219 0 gusting 2 9.4
2017-Nov-24 04:22 229 0 gusting 2 9.4
2017-Nov-24 04:12 243 1 gusting 2 8.9
2017-Nov-24 04:02 246 0 gusting 4 8.9
2017-Nov-24 03:52 247 1 gusting 2 9.4
2017-Nov-24 03:42 196 0 gusting 2 9.4
2017-Nov-24 03:32 216 1 gusting 4 9.4
2017-Nov-24 03:22 191 1 gusting 2 9.4
2017-Nov-24 03:12 198 1 gusting 3 9.4
2017-Nov-24 03:02 193 0 gusting 2 9.4
2017-Nov-24 02:52 203 0 gusting 2 10.0
2017-Nov-24 02:42 192 0 gusting 2 10.0
2017-Nov-24 02:33 232 10.0
2017-Nov-24 02:22 196 0 gusting 1 10.0
2017-Nov-24 02:12 210 0 gusting 2 10.0
2017-Nov-24 02:02 189 0 gusting 1 10.0
2017-Nov-24 01:52 233 0 gusting 2 10.0
2017-Nov-24 01:42 217 1 gusting 2 10.6
2017-Nov-24 01:32 198 0 gusting 2 10.0
2017-Nov-24 01:22 182 0 gusting 2 10.0
2017-Nov-24 01:12 272 0 gusting 2 10.6
2017-Nov-24 01:02 210 0 gusting 2 11.1
2017-Nov-24 00:52 239 0 gusting 1 11.1
2017-Nov-24 00:42 212 0 gusting 2 11.1
2017-Nov-24 00:32 254 1 gusting 2 11.7
2017-Nov-24 00:22 220 0 gusting 2 11.7
2017-Nov-24 00:12 230 1 gusting 2 11.7
2017-Nov-24 00:02 226 0 gusting 1 12.2
2017-Nov-23 23:52 232 0 gusting 2 12.2
2017-Nov-23 23:42 217 12.2
2017-Nov-23 23:32 250 2 gusting 5 12.8
2017-Nov-23 23:22 236 1 gusting 2 12.2
2017-Nov-23 23:12 244 0 gusting 2 12.2
2017-Nov-23 23:02 208 12.2
2017-Nov-23 22:52 248 1 gusting 2 12.2
2017-Nov-23 22:42 263 1 gusting 4 12.8
2017-Nov-23 22:32 263 1 gusting 4 12.8
2017-Nov-23 22:22 165 0 gusting 2 12.8
2017-Nov-23 22:12 206 0 gusting 1 13.3
2017-Nov-23 22:02 209 0 gusting 2 13.3
2017-Nov-23 21:52 244 0 gusting 2 13.3
2017-Nov-23 21:42 236 0 gusting 2 13.3
2017-Nov-23 21:32 232 0 gusting 1 13.9
2017-Nov-23 21:22 226 0 gusting 2 13.9
2017-Nov-23 21:12 219 13.9
2017-Nov-23 21:02 205 0 gusting 4 14.4
2017-Nov-23 20:52 210 14.4
2017-Nov-23 20:42 215 0 gusting 1 14.4
2017-Nov-23 20:32 265 0 gusting 1 15.0
2017-Nov-23 20:22 271 1 gusting 2 15.0
2017-Nov-23 20:12 272 1 gusting 1 15.0
2017-Nov-23 20:02 237 15.0
2017-Nov-23 19:52 239 15.6
2017-Nov-23 19:42 239 0 gusting 2 15.6
2017-Nov-23 19:32 229 0 gusting 1 15.6
2017-Nov-23 19:22 244 0 gusting 2 15.6
2017-Nov-23 19:12 213 0 gusting 1 16.1
2017-Nov-23 19:02 219 0 gusting 2 16.1
2017-Nov-23 18:52 217 0 gusting 3 16.1
2017-Nov-23 18:42 220 16.7
2017-Nov-23 18:32 215 0 gusting 4 16.7
2017-Nov-23 18:22 227 0 gusting 3 17.2
2017-Nov-23 18:12 254 0 gusting 5 17.2
2017-Nov-23 18:02 184 0 gusting 5 17.8
2017-Nov-23 17:52 256 0 gusting 4 18.3
2017-Nov-23 17:42 250 0 gusting 3 18.9
2017-Nov-23 17:32 239 1 gusting 4 19.4
2017-Nov-23 17:22 196 0 gusting 2 20.0
2017-Nov-23 17:12 240 1 gusting 4 21.1
2017-Nov-23 17:02 246 0 gusting 2 22.2
2017-Nov-23 16:52 240 22.8
2017-Nov-23 16:42 240 0 gusting 1 23.3
2017-Nov-23 16:32 216 23.9
2017-Nov-23 16:22 216 0 gusting 1 24.4
2017-Nov-23 16:12 216 23.9
2017-Nov-23 16:02 216 0 gusting 0 25.0
2017-Nov-23 15:52 216 25.6
2017-Nov-23 15:42 216 25.6
2017-Nov-23 15:32 216 26.1
2017-Nov-23 15:22 223 26.1
2017-Nov-23 15:12 223 0 gusting 1 26.1
2017-Nov-23 15:02 226 25.6
2017-Nov-23 14:52 158 0 gusting 1 25.6
2017-Nov-23 14:42 257 1 gusting 3 25.6
2017-Nov-23 14:32 188 0 gusting 2 25.0
2017-Nov-23 14:22 243 25.0
2017-Nov-23 14:12 188 0 gusting 1 24.4
2017-Nov-23 14:02 240 0 gusting 4 24.4
2017-Nov-23 13:52 250 1 gusting 4 23.9
2017-Nov-23 13:42 278 1 gusting 5 23.9
2017-Nov-23 13:32 241 0 gusting 4 23.3
2017-Nov-23 13:22 237 0 gusting 2 23.3
2017-Nov-23 13:12 220 1 gusting 3 23.3
2017-Nov-23 13:02 192 0 gusting 4 23.3
2017-Nov-23 12:52 227 0 gusting 2 23.3
2017-Nov-23 12:42 191 0 gusting 2 22.8
2017-Nov-23 12:33 220 0 gusting 1 21.1
2017-Nov-23 12:22 251 1 gusting 5 20.6
2017-Nov-23 12:12 257 1 gusting 4 20.6
2017-Nov-23 12:02 202 0 gusting 4 20.0
2017-Nov-23 11:52 222 2 gusting 4 19.4
2017-Nov-23 11:42 247 1 gusting 4 19.4
2017-Nov-23 11:32 202 1 gusting 5 18.9
2017-Nov-23 11:22 212 0 gusting 5 18.9
2017-Nov-23 11:12 208 0 gusting 5 17.8
2017-Nov-23 11:02 220 1 gusting 5 17.8
2017-Nov-23 10:52 254 1 gusting 5 17.2
2017-Nov-23 10:42 263 1 gusting 4 16.7
2017-Nov-23 10:32 233 1 gusting 5 16.1
2017-Nov-23 10:22 298 1 gusting 4 15.6
2017-Nov-23 10:12 306 1 gusting 6 15.0
2017-Nov-23 10:02 336 0 gusting 3 14.4
2017-Nov-23 09:52 246 14.4
2017-Nov-23 09:42 251 13.3
2017-Nov-23 09:32 209 13.3
2017-Nov-23 09:22 240 0 gusting 2 12.8
2017-Nov-23 09:12 203 0 gusting 2 12.2
2017-Nov-23 09:02 200 0 gusting 2 11.1
2017-Nov-23 08:52 192 2 gusting 3 10.6
2017-Nov-23 08:42 185 1 gusting 2 10.0
2017-Nov-23 08:32 200 1 gusting 4 10.0
2017-Nov-23 08:12 188 0 gusting 1 8.9
2017-Nov-23 08:03 210 0 gusting 4 7.8
2017-Nov-23 07:52 209 1 gusting 3 7.2
2017-Nov-23 07:42 243 2 gusting 4 6.7
2017-Nov-23 07:32 241 1 gusting 2 6.7
2017-Nov-23 07:22 168 6.1
2017-Nov-23 07:12 257 0 gusting 5 6.1
2017-Nov-23 07:02 224 0 gusting 2 6.7
2017-Nov-23 06:52 189 6.1
2017-Nov-23 06:42 158 0 gusting 2 6.1
2017-Nov-23 06:32 158 0 gusting 2 6.1
2017-Nov-23 06:22 246 1 gusting 3 6.1
2017-Nov-23 06:12 219 0 gusting 2 6.1
2017-Nov-23 06:02 206 1 gusting 2 6.1
2017-Nov-23 05:52 248 0 gusting 2 6.1
2017-Nov-23 05:42 219 1 gusting 2 6.7
2017-Nov-23 05:32 244 1 gusting 5 6.7
2017-Nov-23 05:22 230 0 gusting 2 6.7
2017-Nov-23 05:12 237 0 gusting 5 6.7
2017-Nov-23 05:02 236 1 gusting 4 6.7
2017-Nov-23 04:52 181 1 gusting 2 6.7
2017-Nov-23 04:42 222 0 gusting 2 6.7
2017-Nov-23 04:32 215 0 gusting 1 6.7
2017-Nov-23 04:22 239 6.7
2017-Nov-23 04:12 199 0 gusting 2 6.7
2017-Nov-23 04:02 247 0 gusting 4 6.7
2017-Nov-23 03:52 215 0 gusting 4 7.2
2017-Nov-23 03:42 210 1 gusting 5 7.8
2017-Nov-23 03:32 193 1 gusting 2 7.8
2017-Nov-23 03:22 223 0 gusting 2 7.2
2017-Nov-23 03:12 243 1 gusting 4 7.2
2017-Nov-23 03:02 267 1 gusting 4 6.7
2017-Nov-23 02:52 253 1 gusting 4 7.2
2017-Nov-23 02:42 251 1 gusting 5 7.8
2017-Nov-23 02:32 222 0 gusting 3 7.8
2017-Nov-23 02:22 216 1 gusting 5 7.8
2017-Nov-23 02:12 182 0 gusting 1 7.8
2017-Nov-23 02:02 256 1 gusting 2 7.8
2017-Nov-23 01:52 224 0 gusting 4 7.8
2017-Nov-23 01:42 199 0 gusting 2 8.3
2017-Nov-23 01:32 236 1 gusting 3 8.3
2017-Nov-23 01:22 217 0 gusting 4 8.3
2017-Nov-23 01:12 236 2 gusting 3 8.3
2017-Nov-23 01:02 250 0 gusting 5 8.9
2017-Nov-23 00:52 213 0 gusting 2 9.4
2017-Nov-23 00:42 202 0 gusting 4 10.0
2017-Nov-23 00:32 270 2 gusting 6 10.0
2017-Nov-23 00:22 284 2 gusting 5 10.0
2017-Nov-23 00:12 280 1 gusting 1 10.0
2017-Nov-23 00:02 270 10.6
2017-Nov-22 23:52 278 1 gusting 4 10.0
2017-Nov-22 23:42 274 1 gusting 3 10.0
2017-Nov-22 23:32 257 2 gusting 5 10.6
2017-Nov-22 23:22 216 0 gusting 4 10.6
2017-Nov-22 23:12 212 0 gusting 4 10.6
2017-Nov-22 23:02 237 0 gusting 4 10.6
2017-Nov-22 22:52 216 1 gusting 4 10.6
2017-Nov-22 22:43 220 0 gusting 1 10.6
2017-Nov-22 22:32 188 0 gusting 2 10.6
2017-Nov-22 22:22 198 0 gusting 2 11.1
2017-Nov-22 22:12 236 0 gusting 1 11.1
2017-Nov-22 22:02 215 0 gusting 1 11.1
2017-Nov-22 21:52 233 1 gusting 3 11.7
2017-Nov-22 21:42 254 0 gusting 1 11.7
2017-Nov-22 21:32 234 1 gusting 2 11.7
2017-Nov-22 21:22 230 0 gusting 1 12.2
2017-Nov-22 21:12 196 12.2
2017-Nov-22 21:02 202 0 gusting 1 12.8
2017-Nov-22 20:52 248 12.8
2017-Nov-22 20:42 268 1 gusting 2 12.8
2017-Nov-22 20:32 217 0 gusting 1 12.8
2017-Nov-22 20:22 213 12.8
2017-Nov-22 20:12 213 13.3
2017-Nov-22 20:02 241 0 gusting 1 13.3
2017-Nov-22 19:52 220 0 gusting 2 13.3
2017-Nov-22 19:42 246 13.9
2017-Nov-22 19:32 237 2 gusting 5 13.9
2017-Nov-22 19:22 246 2 gusting 5 13.9
2017-Nov-22 19:12 251 1 gusting 4 14.4
2017-Nov-22 19:02 251 1 gusting 4 15.0
2017-Nov-22 18:52 229 15.6
2017-Nov-22 18:42 236 0 gusting 4 15.6
2017-Nov-22 18:32 257 2 gusting 6 16.1
2017-Nov-22 18:22 131 0 gusting 5 16.1
2017-Nov-22 18:12 251 0 gusting 5 16.7
2017-Nov-22 18:02 240 1 gusting 4 16.7
2017-Nov-22 17:52 226 0 gusting 4 17.2
2017-Nov-22 17:43 136 17.8
2017-Nov-22 17:32 136 18.3
2017-Nov-22 17:22 136 18.9
2017-Nov-22 17:12 136 18.9
2017-Nov-22 17:02 136 19.4
2017-Nov-22 16:52 136 0 gusting 1 19.4
2017-Nov-22 16:43 136 0 gusting 2 20.0
2017-Nov-22 16:32 071 1 gusting 1 20.0
2017-Nov-22 16:13 088 20.6
2017-Nov-22 16:02 092 0 gusting 2 20.6
2017-Nov-22 15:52 100 0 gusting 2 20.6
2017-Nov-22 15:42 126 1 gusting 2 20.6
2017-Nov-22 15:32 112 0 gusting 2 20.6
2017-Nov-22 15:22 109 1 gusting 2 20.6
2017-Nov-22 15:12 103 2 gusting 2 20.6
2017-Nov-22 15:03 056 0 gusting 2 21.1
2017-Nov-22 14:52 119 20.6
2017-Nov-22 14:42 109 0 gusting 2 20.6
2017-Nov-22 14:33 072 0 gusting 1 20.6
2017-Nov-22 14:22 131 1 gusting 2 21.1
2017-Nov-22 14:13 131 0 gusting 2 21.1
2017-Nov-22 14:02 134 0 gusting 1 20.6
2017-Nov-22 13:52 141 0 gusting 1 20.0
2017-Nov-22 13:42 141 0 gusting 2 20.6
2017-Nov-22 13:32 085 20.0
2017-Nov-22 13:22 110 1 gusting 3 20.0
2017-Nov-22 13:12 130 20.6
2017-Nov-22 13:02 343 0 gusting 1 20.6
2017-Nov-22 12:52 040 20.0
2017-Nov-22 12:42 155 19.4
2017-Nov-22 12:32 154 18.9
2017-Nov-22 12:22 130 18.3
2017-Nov-22 12:12 083 0 gusting 1 18.3
2017-Nov-22 12:02 226 17.8